StationID,Date,MaxTemp,MinTemp,Precipitation,Snowfall,SnowDepth
"USR0000AKEL","1990-04-23",24.98,12.02,,,
"USR0000AKEL","1990-04-24",33.98,10.04,,,
"USR0000AKEL","1990-04-25",30.92,10.94,,,
"USR0000AKEL","1990-04-26",33.98,26.96,,,
"USR0000AKEL","1990-04-27",37.94,17.06,,,
"USR0000AKEL","1990-04-28",28.94,5.00,,,
"USR0000AKEL","1990-04-29",23.00,-4.00,,,
"USR0000AKEL","1990-04-30",24.98,1.94,,,
"USR0000AKEL","1990-05-01",30.92,12.92,,,
"USR0000AKEL","1990-05-02",37.04,14.00,,,
"USR0000AKEL","1990-05-03",42.98,24.08,,,
"USR0000AKEL","1990-05-04",35.96,26.06,,,
"USR0000AKEL","1990-05-05",35.06,23.00,,,
"USR0000AKEL","1990-05-06",42.08,21.02,,,
"USR0000AKEL","1990-05-07",44.96,33.98,,,
"USR0000AKEL","1990-05-08",48.92,35.96,,,
"USR0000AKEL","1990-05-09",44.06,35.06,,,
"USR0000AKEL","1990-05-10",46.94,35.96,,,
"USR0000AKEL","1990-05-11",51.98,35.96,,,
"USR0000AKEL","1990-05-12",51.98,35.96,,,
"USR0000AKEL","1990-05-13",42.08,37.04,,,
"USR0000AKEL","1990-05-14",48.92,32.00,,,
"USR0000AKEL","1990-05-15",48.92,32.00,,,
"USR0000AKEL","1990-05-16",53.96,39.92,,,
"USR0000AKEL","1990-05-17",57.02,42.08,,,
"USR0000AKEL","1990-05-18",68.00,44.06,,,
"USR0000AKEL","1990-05-19",66.02,44.06,,,
"USR0000AKEL","1990-05-20",57.02,37.94,,,
"USR0000AKEL","1990-05-21",39.92,35.06,,,
"USR0000AKEL","1990-05-22",42.08,33.08,,,
"USR0000AKEL","1990-05-23",37.94,30.02,,,
"USR0000AKEL","1990-05-24",53.06,30.92,,,
"USR0000AKEL","1990-05-25",59.00,42.08,,,
"USR0000AKEL","1990-05-26",69.98,41.00,,,
"USR0000AKEL","1990-05-27",73.94,48.92,,,
"USR0000AKEL","1990-05-28",77.00,48.92,,,
"USR0000AKEL","1990-05-29",80.96,48.02,,,
"USR0000AKEL","1990-05-30",71.96,50.00,,,
"USR0000AKEL","1990-05-31",69.98,46.94,,,
"USR0000AKEL","1990-06-01",82.04,51.98,,,
"USR0000AKEL","1990-06-02",69.98,44.96,,,
"USR0000AKEL","1990-06-03",77.00,37.94,,,
"USR0000AKEL","1990-06-04",66.02,44.96,,,
"USR0000AKEL","1990-06-05",64.04,42.08,,,
"USR0000AKEL","1990-06-06",64.04,37.94,,,
"USR0000AKEL","1990-06-07",59.00,33.98,,,
"USR0000AKEL","1990-06-08",48.02,35.06,,,
"USR0000AKEL","1990-06-09",57.92,30.92,,,
"USR0000AKEL","1990-06-10",62.96,35.96,,,
"USR0000AKEL","1990-06-11",68.00,37.94,,,
"USR0000AKEL","1990-06-12",64.04,32.00,,,
"USR0000AKEL","1990-06-13",69.08,42.08,,,
"USR0000AKEL","1990-06-14",64.94,46.04,,,
"USR0000AKEL","1990-06-15",55.94,39.92,,,
"USR0000AKEL","1990-06-16",64.94,35.96,,,
"USR0000AKEL","1990-06-17",57.92,44.06,,,
"USR0000AKEL","1990-06-18",53.96,35.06,,,
"USR0000AKEL","1990-06-19",42.08,37.94,,,
"USR0000AKEL","1990-06-20",51.98,35.96,,,
"USR0000AKEL","1990-06-21",57.92,33.08,,,
"USR0000AKEL","1990-06-22",48.92,41.00,,,
"USR0000AKEL","1990-06-23",53.06,30.92,,,
"USR0000AKEL","1990-06-24",66.92,44.96,,,
"USR0000AKEL","1990-06-25",78.98,48.92,,,
"USR0000AKEL","1990-06-26",69.98,55.04,,,
"USR0000AKEL","1990-06-27",57.02,51.08,,,
"USR0000AKEL","1990-06-28",53.96,44.96,,,
"USR0000AKEL","1990-06-29",66.92,46.04,,,
"USR0000AKEL","1990-06-30",80.96,53.96,,,
"USR0000AKEL","1990-07-01",86.00,60.98,,,
"USR0000AKEL","1990-07-02",86.00,59.00,,,
"USR0000AKEL","1990-07-03",73.94,51.98,,,
"USR0000AKEL","1990-07-04",84.92,57.92,,,
"USR0000AKEL","1990-07-05",78.08,55.94,,,
"USR0000AKEL","1990-07-06",73.94,59.00,,,
"USR0000AKEL","1990-07-07",55.94,41.00,,,
"USR0000AKEL","1990-07-08",62.96,41.00,,,
"USR0000AKEL","1990-07-09",68.00,44.06,,,
"USR0000AKEL","1990-07-10",66.92,48.92,,,
"USR0000AKEL","1990-07-11",64.04,39.92,,,
"USR0000AKEL","1990-07-12",55.04,44.96,,,
"USR0000AKEL","1990-07-13",51.08,46.94,,,
"USR0000AKEL","1990-07-14",48.92,46.04,,,
"USR0000AKEL","1990-07-15",53.06,41.00,,,
"USR0000AKEL","1990-07-16",48.92,46.94,,,
"USR0000AKEL","1990-07-17",53.06,46.94,,,
"USR0000AKEL","1990-07-18",53.96,50.00,,,
"USR0000AKEL","1990-07-19",59.00,53.06,,,
"USR0000AKEL","1990-07-20",55.04,51.08,,,
"USR0000AKEL","1990-07-21",73.94,48.92,,,
"USR0000AKEL","1990-07-22",73.94,46.94,,,
"USR0000AKEL","1990-07-23",73.94,51.08,,,
"USR0000AKEL","1990-07-24",77.00,53.96,,,
"USR0000AKEL","1990-07-25",71.96,51.08,,,
"USR0000AKEL","1990-07-26",64.94,46.04,,,
"USR0000AKEL","1990-07-27",62.96,44.96,,,
"USR0000AKEL","1990-07-28",69.98,46.04,,,
"USR0000AKEL","1990-07-29",69.08,48.92,,,
"USR0000AKEL","1990-07-30",71.96,53.06,,,
"USR0000AKEL","1990-07-31",68.00,48.02,,,
"USR0000AKEL","1990-08-01",73.04,46.04,,,
"USR0000AKEL","1990-08-02",73.94,53.06,,,
"USR0000AKEL","1990-08-03",71.96,48.02,,,
"USR0000AKEL","1990-08-04",66.02,42.98,,,
"USR0000AKEL","1990-08-05",75.92,46.04,,,
"USR0000AKEL","1990-08-06",69.98,48.92,,,
"USR0000AKEL","1990-08-07",77.00,48.92,,,
"USR0000AKEL","1990-08-08",73.94,46.94,,,
"USR0000AKEL","1990-08-09",71.96,51.08,,,
"USR0000AKEL","1990-08-10",66.92,44.96,,,
"USR0000AKEL","1990-08-11",78.08,62.96,,,
"USR0000AKEL","1990-08-12",69.08,64.94,,,
"USR0000AKEL","1990-08-13",59.00,53.06,,,
"USR0000AKEL","1990-08-14",64.94,46.94,,,
"USR0000AKEL","1990-08-15",57.92,51.08,,,
"USR0000AKEL","1990-08-16",60.98,50.00,,,
"USR0000AKEL","1990-08-17",60.98,60.08,,,
"USR0000AKEL","1990-08-18",68.00,57.02,,,
"USR0000AKEL","1990-08-20",53.06,44.06,,,
"USR0000AKEL","1990-08-21",55.94,46.04,,,
"USR0000AKEL","1990-08-22",64.04,57.92,,,
"USR0000AKEL","1990-08-23",53.96,53.06,,,
"USR0000AKEL","1990-08-24",51.98,42.98,,,
"USR0000AKEL","1990-08-26",48.02,42.08,,,
"USR0000AKEL","1990-08-28",37.94,37.94,,,
"USR0000AKEL","1990-08-29",50.00,48.02,,,
"USR0000AKEL","1990-08-31",48.02,39.92,,,
"USR0000AKEL","1990-09-01",48.92,46.94,,,
"USR0000AKEL","1990-09-02",35.96,33.98,,,
"USR0000AKEL","1990-09-03",44.96,44.06,,,
"USR0000AKEL","1990-09-05",42.98,42.08,,,
"USR0000AKEL","1990-09-06",32.00,30.92,,,
"USR0000AKEL","1990-09-09",28.94,28.04,,,
"USR0000AKEL","1990-09-10",42.98,42.98,,,
"USR0000AKEL","1990-09-12",39.92,39.02,,,
"USR0000AKEL","1990-09-13",42.08,39.92,,,
"USR0000AKEL","1990-09-17",53.96,51.98,,,
"USR0000AKEL","1990-09-19",48.02,41.00,,,
"USR0000AKEL","1990-09-20",44.06,30.92,,,
"USR0000AKEL","1990-09-21",35.96,28.94,,,
"USR0000AKEL","1990-09-22",41.00,28.94,,,
"USR0000AKEL","1990-09-23",35.06,23.00,,,
"USR0000AKEL","1990-09-24",37.04,21.92,,,
"USR0000AKEL","1990-09-25",35.06,19.94,,,
"USR0000AKEL","1990-09-26",33.08,19.04,,,
"USR0000AKEL","1990-09-27",33.08,10.94,,,
"USR0000AKEL","1990-09-28",30.02,15.08,,,
"USR0000AKEL","1990-09-29",33.08,14.00,,,
"USR0000AKEL","1990-09-30",33.98,21.92,,,
"USR0000AKEL","1990-10-01",32.00,19.94,,,
"USR0000AKEL","1990-10-02",30.92,19.04,,,
"USR0000AKEL","1990-10-03",30.92,26.06,,,
"USR0000AKEL","1990-10-04",32.00,28.04,,,
"USR0000AKEL","1990-10-05",32.00,30.92,,,
"USR0000AKEL","1990-10-06",35.06,30.92,,,
"USR0000AKEL","1990-10-07",37.94,32.00,,,
"USR0000AKEL","1990-10-08",32.00,28.04,,,
"USR0000AKEL","1990-10-09",33.98,24.08,,,
"USR0000AKEL","1990-10-10",35.96,32.00,,,
"USR0000AKEL","1990-10-11",33.98,26.96,,,
"USR0000AKEL","1990-10-12",28.04,17.06,,,
"USR0000AKEL","1990-10-13",28.04,17.96,,,
"USR0000AKEL","1990-10-14",26.06,19.94,,,
"USR0000AKEL","1990-10-15",21.02,15.08,,,
"USR0000AKEL","1990-10-16",26.96,15.08,,,
"USR0000AKEL","1990-10-17",30.02,24.98,,,
"USR0000AKEL","1990-10-18",26.96,23.00,,,
"USR0000AKEL","1990-10-19",26.96,24.08,,,
"USR0000AKEL","1990-10-20",28.04,19.04,,,
"USR0000AKEL","1990-10-21",23.00,10.04,,,
"USR0000AKEL","1990-10-22",17.06,5.00,,,
"USR0000AKEL","1990-10-23",12.02,6.98,,,
"USR0000AKEL","1990-10-24",14.00,8.96,,,
"USR0000AKEL","1990-10-25",17.96,10.94,,,
"USR0000AKEL","1990-10-26",10.94,1.04,,,
"USR0000AKEL","1990-10-27",6.08,-0.94,,,
"USR0000AKEL","1990-10-28",3.92,-5.98,,,
"USR0000AKEL","1990-10-29",10.94,-4.00,,,
"USR0000AKEL","1990-10-30",12.02,8.06,,,
"USR0000AKEL","1990-10-31",17.96,8.96,,,
"USR0000AKEL","1990-11-01",15.98,6.98,,,
"USR0000AKEL","1990-11-02",30.02,12.92,,,
"USR0000AKEL","1990-11-03",33.08,28.94,,,
"USR0000AKEL","1990-11-04",30.92,17.96,,,
"USR0000AKEL","1990-11-05",19.04,3.92,,,
"USR0000AKEL","1990-11-06",6.98,-7.96,,,
"USR0000AKEL","1990-11-07",-7.96,-13.00,,,
"USR0000AKEL","1990-11-08",-0.94,-11.02,,,
"USR0000AKEL","1990-11-09",-9.04,-18.94,,,
"USR0000AKEL","1990-11-10",5.00,-23.08,,,
"USR0000AKEL","1990-11-11",10.94,5.00,,,
"USR0000AKEL","1990-11-12",10.94,3.92,,,
"USR0000AKEL","1990-11-13",12.02,10.04,,,
"USR0000AKEL","1990-11-14",10.04,-2.02,,,
"USR0000AKEL","1990-11-15",-0.94,-18.94,,,
"USR0000AKEL","1990-11-16",-2.02,-18.04,,,
"USR0000AKEL","1990-11-17",12.92,-0.94,,,
"USR0000AKEL","1990-11-18",19.04,14.00,,,
"USR0000AKEL","1990-11-19",26.06,15.98,,,
"USR0000AKEL","1990-11-20",21.02,-0.94,,,
"USR0000AKEL","1990-11-21",8.96,-5.98,,,
"USR0000AKEL","1990-11-22",-0.94,-7.96,,,
"USR0000AKEL","1990-11-23",-0.04,-2.02,,,
"USR0000AKEL","1990-11-24",1.04,-0.94,,,
"USR0000AKEL","1990-11-25",1.04,-5.08,,,
"USR0000AKEL","1990-11-26",-5.08,-14.98,,,
"USR0000AKEL","1990-11-27",-9.94,-18.94,,,
"USR0000AKEL","1990-11-28",-9.04,-20.02,,,
"USR0000AKEL","1990-11-29",-16.96,-25.96,,,
"USR0000AKEL","1990-11-30",-27.94,-32.98,,,
"USR0000AKEL","1990-12-01",-20.02,-27.94,,,
"USR0000AKEL","1990-12-02",-5.98,-22.00,,,
"USR0000AKEL","1990-12-03",-7.06,-20.92,,,
"USR0000AKEL","1990-12-04",-7.06,-18.04,,,
"USR0000AKEL","1990-12-05",-5.08,-16.96,,,
"USR0000AKEL","1990-12-06",-7.06,-14.98,,,
"USR0000AKEL","1990-12-07",-11.92,-14.98,,,
"USR0000AKEL","1990-12-08",-14.08,-20.92,,,
"USR0000AKEL","1990-12-09",-16.96,-20.92,,,
"USR0000AKEL","1990-12-10",-20.02,-23.98,,,
"USR0000AKEL","1990-12-11",-18.04,-23.98,,,
"USR0000AKEL","1990-12-12",-5.08,-20.92,,,
"USR0000AKEL","1990-12-13",-5.98,-25.06,,,
"USR0000AKEL","1990-12-14",-23.08,-29.02,,,
"USR0000AKEL","1990-12-15",-20.92,-32.98,,,
"USR0000AKEL","1990-12-16",-11.92,-34.96,,,
"USR0000AKEL","1990-12-17",21.02,-9.94,,,
"USR0000AKEL","1990-12-18",21.02,12.92,,,
"USR0000AKEL","1990-12-19",24.98,15.08,,,
"USR0000AKEL","1990-12-20",30.02,14.00,,,
"USR0000AKEL","1990-12-21",14.00,-4.00,,,
"USR0000AKEL","1990-12-22",3.02,-4.00,,,
"USR0000AKEL","1990-12-23",10.04,-0.04,,,
"USR0000AKEL","1990-12-24",12.02,3.02,,,
"USR0000AKEL","1990-12-25",-0.04,-9.04,,,
"USR0000AKEL","1990-12-26",-5.98,-18.94,,,
"USR0000AKEL","1990-12-27",6.08,-18.04,,,
"USR0000AKEL","1990-12-28",15.08,3.02,,,
"USR0000AKEL","1990-12-29",10.04,-14.08,,,
"USR0000AKEL","1990-12-30",-2.02,-11.02,,,
"USR0000AKEL","1990-12-31",5.00,-2.92,,,
"USR0000AKEL","1991-01-01",10.94,1.04,,,
"USR0000AKEL","1991-01-02",10.94,3.02,,,
"USR0000AKEL","1991-01-03",8.06,-0.04,,,
"USR0000AKEL","1991-01-04",12.92,-2.92,,,
"USR0000AKEL","1991-01-05",14.00,6.98,,,
"USR0000AKEL","1991-01-06",12.92,6.98,,,
"USR0000AKEL","1991-01-07",10.04,-0.04,,,
"USR0000AKEL","1991-01-08",5.00,-2.92,,,
"USR0000AKEL","1991-01-09",-0.94,-20.92,,,
"USR0000AKEL","1991-01-10",-20.02,-27.04,,,
"USR0000AKEL","1991-01-11",-16.96,-22.00,,,
"USR0000AKEL","1991-01-12",-11.92,-23.98,,,
"USR0000AKEL","1991-01-13",-14.98,-23.98,,,
"USR0000AKEL","1991-01-14",-23.98,-32.98,,,
"USR0000AKEL","1991-01-15",-22.00,-32.98,,,
"USR0000AKEL","1991-01-16",-7.96,-22.00,,,
"USR0000AKEL","1991-01-17",-0.94,-9.94,,,
"USR0000AKEL","1991-01-18",-0.04,-11.92,,,
"USR0000AKEL","1991-01-19",24.08,1.94,,,
"USR0000AKEL","1991-01-20",26.96,12.92,,,
"USR0000AKEL","1991-01-21",10.04,-0.04,,,
"USR0000AKEL","1991-01-22",21.92,6.08,,,
"USR0000AKEL","1991-01-23",26.06,17.06,,,
"USR0000AKEL","1991-01-24",33.08,17.96,,,
"USR0000AKEL","1991-01-25",30.92,8.96,,,
"USR0000AKEL","1991-01-26",8.06,-14.08,,,
"USR0000AKEL","1991-01-27",17.06,-0.94,,,
"USR0000AKEL","1991-01-28",17.06,-14.98,,,
"USR0000AKEL","1991-01-29",-16.06,-38.02,,,
"USR0000AKEL","1991-01-30",-25.06,-38.02,,,
"USR0000AKEL","1991-01-31",-11.92,-23.08,,,
"USR0000AKEL","1991-02-01",-16.06,-20.92,,,
"USR0000AKEL","1991-02-02",-14.98,-23.08,,,
"USR0000AKEL","1991-02-03",-16.96,-29.92,,,
"USR0000AKEL","1991-02-04",-25.96,-43.06,,,
"USR0000AKEL","1991-02-05",-31.00,-45.04,,,
"USR0000AKEL","1991-02-06",-43.06,-47.02,,,
"USR0000AKEL","1991-02-07",-38.92,-43.96,,,
"USR0000AKEL","1991-02-08",-18.94,-38.92,,,
"USR0000AKEL","1991-02-09",8.96,-18.94,,,
"USR0000AKEL","1991-02-10",17.96,8.96,,,
"USR0000AKEL","1991-02-11",19.94,8.96,,,
"USR0000AKEL","1991-02-12",30.02,19.94,,,
"USR0000AKEL","1991-02-13",24.98,14.00,,,
"USR0000AKEL","1991-02-14",21.92,12.92,,,
"USR0000AKEL","1991-02-15",19.94,12.92,,,
"USR0000AKEL","1991-02-16",12.02,3.92,,,
"USR0000AKEL","1991-02-17",3.92,-7.96,,,
"USR0000AKEL","1991-02-18",-5.08,-11.92,,,
"USR0000AKEL","1991-02-19",3.92,-11.02,,,
"USR0000AKEL","1991-02-20",3.02,-7.96,,,
"USR0000AKEL","1991-02-21",-0.04,-7.06,,,
"USR0000AKEL","1991-02-22",-2.02,-9.04,,,
"USR0000AKEL","1991-02-23",19.04,-4.00,,,
"USR0000AKEL","1991-02-24",30.02,12.92,,,
"USR0000AKEL","1991-02-25",19.04,-0.94,,,
"USR0000AKEL","1991-02-26",19.94,-2.02,,,
"USR0000AKEL","1991-02-27",26.96,17.96,,,
"USR0000AKEL","1991-02-28",24.98,12.92,,,
"USR0000AKEL","1991-03-01",15.98,3.92,,,
"USR0000AKEL","1991-03-02",12.02,3.02,,,
"USR0000AKEL","1991-03-03",23.00,6.98,,,
"USR0000AKEL","1991-03-04",21.02,10.94,,,
"USR0000AKEL","1991-03-05",19.94,10.04,,,
"USR0000AKEL","1991-03-06",14.00,6.08,,,
"USR0000AKEL","1991-03-07",15.98,6.08,,,
"USR0000AKEL","1991-03-08",6.08,-13.00,,,
"USR0000AKEL","1991-03-09",1.94,-11.92,,,
"USR0000AKEL","1991-03-10",3.02,-7.06,,,
"USR0000AKEL","1991-03-11",3.92,-4.00,,,
"USR0000AKEL","1991-03-12",-5.98,-22.00,,,
"USR0000AKEL","1991-03-13",-20.92,-31.00,,,
"USR0000AKEL","1991-03-14",-2.92,-34.06,,,
"USR0000AKEL","1991-03-15",-11.92,-32.98,,,
"USR0000AKEL","1991-03-16",-5.08,-32.98,,,
"USR0000AKEL","1991-03-17",5.00,-14.98,,,
"USR0000AKEL","1991-03-18",-2.92,-20.02,,,
"USR0000AKEL","1991-03-19",-5.08,-23.98,,,
"USR0000AKEL","1991-03-20",-7.96,-20.92,,,
"USR0000AKEL","1991-03-21",-5.98,-25.06,,,
"USR0000AKEL","1991-03-22",6.08,-16.06,,,
"USR0000AKEL","1991-03-23",24.98,5.00,,,
"USR0000AKEL","1991-03-24",28.04,21.92,,,
"USR0000AKEL","1991-03-25",24.98,3.92,,,
"USR0000AKEL","1991-03-26",6.98,-2.92,,,
"USR0000AKEL","1991-03-27",8.96,-4.00,,,
"USR0000AKEL","1991-03-28",10.94,-2.92,,,
"USR0000AKEL","1991-03-29",10.04,-9.94,,,
"USR0000AKEL","1991-03-30",3.02,-16.06,,,
"USR0000AKEL","1991-03-31",10.94,-0.04,,,
"USR0000AKEL","1991-04-01",15.08,1.04,,,
"USR0000AKEL","1991-04-02",15.98,-2.02,,,
"USR0000AKEL","1991-04-03",15.98,3.02,,,
"USR0000AKEL","1991-04-04",17.06,-0.04,,,
"USR0000AKEL","1991-04-05",17.96,-4.00,,,
"USR0000AKEL","1991-04-06",6.98,-9.04,,,
"USR0000AKEL","1991-04-07",5.00,-13.00,,,
"USR0000AKEL","1991-04-08",10.94,-16.96,,,
"USR0000AKEL","1991-04-09",6.08,-14.98,,,
"USR0000AKEL","1991-04-10",10.94,-9.94,,,
"USR0000AKEL","1991-04-11",21.92,10.94,,,
"USR0000AKEL","1991-04-12",30.02,17.96,,,
"USR0000AKEL","1991-04-13",23.00,15.08,,,
"USR0000AKEL","1991-04-14",30.92,19.94,,,
"USR0000AKEL","1991-04-15",44.06,24.08,,,
"USR0000AKEL","1991-04-16",39.02,21.02,,,
"USR0000AKEL","1991-04-17",42.98,21.02,,,
"USR0000AKEL","1991-04-18",33.98,19.94,,,
"USR0000AKEL","1991-04-19",35.06,21.02,,,
"USR0000AKEL","1991-04-20",35.06,28.04,,,
"USR0000AKEL","1991-04-21",37.94,24.98,,,
"USR0000AKEL","1991-04-22",39.02,24.98,,,
"USR0000AKEL","1991-04-23",35.96,19.04,,,
"USR0000AKEL","1991-04-24",44.96,23.00,,,
"USR0000AKEL","1991-04-25",35.06,24.08,,,
"USR0000AKEL","1991-04-26",33.98,26.06,,,
"USR0000AKEL","1991-04-27",35.06,24.98,,,
"USR0000AKEL","1991-04-28",30.02,23.00,,,
"USR0000AKEL","1991-04-29",37.94,19.04,,,
"USR0000AKEL","1991-04-30",44.96,24.98,,,
"USR0000AKEL","1991-05-01",30.92,23.00,,,
"USR0000AKEL","1991-05-02",219.92,21.92,,,
"USR0000AKEL","1991-05-03",46.04,30.02,,,
"USR0000AKEL","1991-05-04",44.96,33.98,,,
"USR0000AKEL","1991-05-05",46.04,35.96,,,
"USR0000AKEL","1991-05-06",48.92,33.98,,,
"USR0000AKEL","1991-05-07",48.92,35.96,,,
"USR0000AKEL","1991-05-08",51.08,35.06,,,
"USR0000AKEL","1991-05-09",51.98,35.96,,,
"USR0000AKEL","1991-05-10",53.06,35.96,,,
"USR0000AKEL","1991-05-11",50.00,30.02,,,
"USR0000AKEL","1991-05-12",48.92,30.92,,,
"USR0000AKEL","1991-05-13",46.94,33.08,,,
"USR0000AKEL","1991-05-14",48.92,30.92,,,
"USR0000AKEL","1991-05-15",46.04,30.92,,,
"USR0000AKEL","1991-05-16",50.00,30.02,,,
"USR0000AKEL","1991-05-17",44.96,26.06,,,
"USR0000AKEL","1991-05-18",46.94,28.04,,,
"USR0000AKEL","1991-05-19",44.96,28.04,,,
"USR0000AKEL","1991-05-20",35.96,28.04,,,
"USR0000AKEL","1991-05-21",37.94,30.02,,,
"USR0000AKEL","1991-05-22",37.04,33.08,,,
"USR0000AKEL","1991-05-23",51.98,32.00,,,
"USR0000AKEL","1991-05-24",48.92,30.02,,,
"USR0000AKEL","1991-05-25",50.00,35.96,,,
"USR0000AKEL","1991-05-26",46.94,33.08,,,
"USR0000AKEL","1991-05-27",46.04,30.02,,,
"USR0000AKEL","1991-05-28",51.08,39.02,,,
"USR0000AKEL","1991-05-29",55.04,37.94,,,
"USR0000AKEL","1991-05-30",60.08,39.02,,,
"USR0000AKEL","1991-05-31",57.92,39.92,,,
"USR0000AKEL","1991-06-01",44.06,35.06,,,
"USR0000AKEL","1991-06-02",46.94,33.08,,,
"USR0000AKEL","1991-06-03",60.08,33.98,,,
"USR0000AKEL","1991-06-04",69.98,42.98,,,
"USR0000AKEL","1991-06-05",69.98,48.02,,,
"USR0000AKEL","1991-06-06",75.02,42.98,,,
"USR0000AKEL","1991-06-07",71.96,46.04,,,
"USR0000AKEL","1991-06-08",73.94,46.04,,,
"USR0000AKEL","1991-06-09",69.98,46.04,,,
"USR0000AKEL","1991-06-10",64.04,41.00,,,
"USR0000AKEL","1991-06-11",51.98,32.00,,,
"USR0000AKEL","1991-06-12",46.04,30.92,,,
"USR0000AKEL","1991-06-13",51.98,35.96,,,
"USR0000AKEL","1991-06-14",44.06,37.94,,,
"USR0000AKEL","1991-06-15",53.06,39.92,,,
"USR0000AKEL","1991-06-16",62.06,42.98,,,
"USR0000AKEL","1991-06-17",69.08,46.04,,,
"USR0000AKEL","1991-06-18",75.02,50.00,,,
"USR0000AKEL","1991-06-19",73.94,51.08,,,
"USR0000AKEL","1991-06-20",82.94,55.04,,,
"USR0000AKEL","1991-06-21",87.98,59.00,,,
"USR0000AKEL","1991-06-22",84.92,53.96,,,
"USR0000AKEL","1991-06-23",71.96,44.96,,,
"USR0000AKEL","1991-06-24",77.00,55.94,,,
"USR0000AKEL","1991-06-25",69.08,60.08,,,
"USR0000AKEL","1991-06-26",82.04,57.02,,,
"USR0000AKEL","1991-06-27",86.00,55.04,,,
"USR0000AKEL","1991-06-28",75.92,55.04,,,
"USR0000AKEL","1991-06-29",75.02,48.92,,,
"USR0000AKEL","1991-06-30",80.96,48.92,,,
"USR0000AKEL","1991-07-01",77.00,51.08,,,
"USR0000AKEL","1991-07-02",73.94,48.02,,,
"USR0000AKEL","1991-07-03",60.98,48.92,,,
"USR0000AKEL","1991-07-04",69.08,44.06,,,
"USR0000AKEL","1991-07-05",75.02,48.92,,,
"USR0000AKEL","1991-07-06",75.92,50.00,,,
"USR0000AKEL","1991-07-07",82.94,50.00,,,
"USR0000AKEL","1991-07-08",80.96,53.96,,,
"USR0000AKEL","1991-07-09",71.06,53.06,,,
"USR0000AKEL","1991-07-10",69.08,46.04,,,
"USR0000AKEL","1991-07-11",60.98,41.00,,,
"USR0000AKEL","1991-07-12",69.98,41.00,,,
"USR0000AKEL","1991-07-13",64.94,44.06,,,
"USR0000AKEL","1991-07-14",60.98,48.02,,,
"USR0000AKEL","1991-07-15",62.96,46.04,,,
"USR0000AKEL","1991-07-16",68.00,46.94,,,
"USR0000AKEL","1991-07-17",64.04,41.00,,,
"USR0000AKEL","1991-07-18",48.02,33.98,,,
"USR0000AKEL","1991-07-19",53.96,37.94,,,
"USR0000AKEL","1991-07-20",53.06,35.06,,,
"USR0000AKEL","1991-07-21",64.94,51.08,,,
"USR0000AKEL","1991-07-22",64.94,46.04,,,
"USR0000AKEL","1991-07-23",64.94,42.08,,,
"USR0000AKEL","1991-07-24",73.04,48.02,,,
"USR0000AKEL","1991-07-25",75.02,48.92,,,
"USR0000AKEL","1991-07-26",57.92,41.00,,,
"USR0000AKEL","1991-07-27",55.94,37.04,,,
"USR0000AKEL","1991-07-28",530.06,46.04,,,
"USR0000AKEL","1991-07-29",51.08,42.98,,,
"USR0000AKEL","1991-07-30",66.92,46.04,,,
"USR0000AKEL","1991-07-31",73.04,48.02,,,
"USR0000AKEL","1991-08-01",75.02,46.94,,,
"USR0000AKEL","1991-08-02",71.96,46.94,,,
"USR0000AKEL","1991-08-03",62.96,42.98,,,
"USR0000AKEL","1991-08-04",62.06,42.08,,,
"USR0000AKEL","1991-08-05",55.94,42.08,,,
"USR0000AKEL","1991-08-06",55.04,33.98,,,
"USR0000AKEL","1991-08-07",60.98,35.96,,,
"USR0000AKEL","1991-08-08",55.04,30.02,,,
"USR0000AKEL","1991-08-09",62.06,32.00,,,
"USR0000AKEL","1991-08-10",48.02,41.00,,,
"USR0000AKEL","1991-08-11",57.02,46.04,,,
"USR0000AKEL","1991-08-12",66.92,48.92,,,
"USR0000AKEL","1991-08-13",69.08,48.92,,,
"USR0000AKEL","1991-08-14",57.92,44.06,,,
"USR0000AKEL","1991-08-15",60.98,41.00,,,
"USR0000AKEL","1991-08-16",66.92,37.04,,,
"USR0000AKEL","1991-08-17",69.08,42.08,,,
"USR0000AKEL","1991-08-18",62.96,44.06,,,
"USR0000AKEL","1991-08-19",68.00,37.04,,,
"USR0000AKEL","1991-08-20",66.02,35.96,,,
"USR0000AKEL","1991-08-21",62.06,37.04,,,
"USR0000AKEL","1991-08-22",51.08,44.96,,,
"USR0000AKEL","1991-08-23",59.00,35.96,,,
"USR0000AKEL","1991-08-24",51.08,35.96,,,
"USR0000AKEL","1991-08-25",55.94,33.08,,,
"USR0000AKEL","1991-08-26",60.98,32.00,,,
"USR0000AKEL","1991-08-27",66.02,28.94,,,
"USR0000AKEL","1991-08-28",62.96,35.06,,,
"USR0000AKEL","1991-08-29",62.96,30.92,,,
"USR0000AKEL","1991-08-30",68.00,33.98,,,
"USR0000AKEL","1991-08-31",68.00,39.02,,,
"USR0000AKEL","1991-09-01",71.06,35.06,,,
"USR0000AKEL","1991-09-02",73.94,39.02,,,
"USR0000AKEL","1991-09-03",73.04,46.04,,,
"USR0000AKEL","1991-09-04",69.98,46.04,,,
"USR0000AKEL","1991-09-05",66.92,44.96,,,
"USR0000AKEL","1991-09-06",48.92,33.98,,,
"USR0000AKEL","1991-09-07",50.00,33.98,,,
"USR0000AKEL","1991-09-08",48.02,28.94,,,
"USR0000AKEL","1991-09-09",41.00,24.98,,,
"USR0000AKEL","1991-09-10",60.08,30.02,,,
"USR0000AKEL","1991-09-11",50.00,30.92,,,
"USR0000AKEL","1991-09-12",41.00,28.04,,,
"USR0000AKEL","1991-09-13",39.92,28.04,,,
"USR0000AKEL","1991-09-14",53.96,32.00,,,
"USR0000AKEL","1991-09-15",55.04,35.96,,,
"USR0000AKEL","1991-09-16",51.98,46.04,,,
"USR0000AKEL","1991-09-17",53.96,42.98,,,
"USR0000AKEL","1991-09-18",48.02,42.98,,,
"USR0000AKEL","1991-09-19",51.08,42.08,,,
"USR0000AKEL","1991-09-20",44.06,32.00,,,
"USR0000AKEL","1991-09-21",39.02,30.02,,,
"USR0000AKEL","1991-09-22",46.94,26.96,,,
"USR0000AKEL","1991-09-23",44.96,28.04,,,
"USR0000AKEL","1991-09-24",37.04,28.04,,,
"USR0000AKEL","1991-09-25",42.98,35.96,,,
"USR0000AKEL","1991-09-26",50.00,35.96,,,
"USR0000AKEL","1991-09-27",51.98,30.92,,,
"USR0000AKEL","1991-09-28",44.96,26.96,,,
"USR0000AKEL","1991-09-29",44.06,28.04,,,
"USR0000AKEL","1991-09-30",42.08,28.04,,,
"USR0000AKEL","1991-10-01",44.96,35.96,,,
"USR0000AKEL","1991-10-02",44.96,37.04,,,
"USR0000AKEL","1991-10-03",46.04,39.02,,,
"USR0000AKEL","1991-10-04",39.02,30.02,,,
"USR0000AKEL","1991-10-05",30.92,24.08,,,
"USR0000AKEL","1991-10-06",33.08,19.04,,,
"USR0000AKEL","1991-10-07",24.08,8.96,,,
"USR0000AKEL","1991-10-08",17.96,5.00,,,
"USR0000AKEL","1991-10-09",6.98,3.92,,,
"USR0000AKEL","1991-10-10",17.06,15.08,,,
"USR0000AKEL","1991-10-18",14.00,1.94,,,
"USR0000AKEL","1991-10-19",19.94,1.04,,,
"USR0000AKEL","1991-10-20",33.98,-0.04,,,
"USR0000AKEL","1991-10-21",33.08,33.08,,,
"USR0000AKEL","1991-10-31",28.04,26.06,,,
"USR0000AKEL","1991-11-01",26.96,23.00,,,
"USR0000AKEL","1991-11-02",24.98,15.08,,,
"USR0000AKEL","1991-11-03",32.00,26.06,,,
"USR0000AKEL","1991-11-04",24.98,17.96,,,
"USR0000AKEL","1991-11-05",33.08,17.06,,,
"USR0000AKEL","1991-11-06",28.94,17.96,,,
"USR0000AKEL","1991-11-07",17.06,1.04,,,
"USR0000AKEL","1991-11-08",14.00,-2.92,,,
"USR0000AKEL","1991-11-09",12.92,1.94,,,
"USR0000AKEL","1991-11-10",6.08,-4.00,,,
"USR0000AKEL","1991-11-11",10.04,1.94,,,
"USR0000AKEL","1991-11-12",1.94,-7.06,,,
"USR0000AKEL","1991-11-13",-2.92,-9.04,,,
"USR0000AKEL","1991-11-14",5.00,-4.00,,,
"USR0000AKEL","1991-11-15",3.92,-0.94,,,
"USR0000AKEL","1991-11-16",-0.94,-14.98,,,
"USR0000AKEL","1991-11-17",-13.00,-18.94,,,
"USR0000AKEL","1991-11-18",-13.00,-18.94,,,
"USR0000AKEL","1991-11-19",-9.94,-14.08,,,
"USR0000AKEL","1991-11-20",-2.02,-16.96,,,
"USR0000AKEL","1991-11-21",-4.00,-13.00,,,
"USR0000AKEL","1991-11-22",-7.96,-14.08,,,
"USR0000AKEL","1991-11-23",-2.02,-9.04,,,
"USR0000AKEL","1991-11-24",3.92,-5.08,,,
"USR0000AKEL","1991-11-25",6.98,-0.04,,,
"USR0000AKEL","1991-11-26",1.94,-5.08,,,